This is the latest recevied weather packets stored in our database for station/object PA3CPS. If no packets are shown the sender has not sent any weather packets the latest 1 day(s).
| Time | Temp. | Humidity | Pressure | Rain* | Wind** | Luminosity | Snow |
|---|---|---|---|---|---|---|---|
| 1778017570 | 10° C | 86% | 1009.2 hPa | 0 mm | 2.68 m/s, 343° | 0 W/m² | - |
| 1778017269 | 10° C | 86% | 1009.2 hPa | 0 mm | 2.68 m/s, 16° | 0 W/m² | - |
| 1778016969 | 10° C | 86% | 1009.3 hPa | 0 mm | 2.68 m/s, 335° | 0 W/m² | - |
| 1778016666 | 10° C | 86% | 1009.3 hPa | 0 mm | 2.68 m/s, 2° | 0 W/m² | - |
| 1778016365 | 10° C | 86% | 1009.3 hPa | 0 mm | 2.68 m/s, 7° | 0 W/m² | - |
| 1778016066 | 10° C | 86% | 1009.2 hPa | 0 mm | 3.58 m/s, 349° | 0 W/m² | - |
| 1778015764 | 10° C | 86% | 1009.3 hPa | 0 mm | 3.13 m/s, 340° | 0 W/m² | - |
| 1778015465 | 10° C | 85% | 1009.3 hPa | 0 mm | 3.13 m/s, 359° | 0 W/m² | - |
| 1778015165 | 10° C | 85% | 1009.3 hPa | 0 mm | 2.68 m/s, 344° | 0 W/m² | - |
| 1778014867 | 10° C | 85% | 1009.5 hPa | 0 mm | 2.68 m/s, 342° | 0 W/m² | - |
| 1778014563 | 10° C | 85% | 1009.5 hPa | 0 mm | 3.13 m/s, 319° | 0 W/m² | - |
| 1778013963 | 10° C | 85% | 1009.6 hPa | 0 mm | 3.13 m/s, 12° | 0 W/m² | - |
| 1778013662 | 10° C | 85% | 1009.7 hPa | 0 mm | 2.68 m/s, 326° | 0 W/m² | - |
| 1778013363 | 10° C | 85% | 1009.6 hPa | 0 mm | 2.68 m/s, 335° | 0 W/m² | - |
| 1778013062 | 10° C | 85% | 1009.6 hPa | 0 mm | 2.24 m/s, 337° | 0 W/m² | - |
| 1778012762 | 10° C | 85% | 1009.6 hPa | 0 mm | 2.24 m/s, 339° | 0 W/m² | - |
| 1778012163 | 10.56° C | 85% | 1009.6 hPa | 0 mm | 3.58 m/s, 347° | 0 W/m² | - |
| 1778011862 | 10.56° C | 85% | 1009.5 hPa | 0 mm | 3.13 m/s, 344° | 0 W/m² | - |
| 1778011565 | 10.56° C | 84% | 1009.4 hPa | 0 mm | 3.58 m/s, 328° | 0 W/m² | - |
| 1778011265 | 10.56° C | 84% | 1009.5 hPa | 0 mm | 2.24 m/s, 2° | 0 W/m² | - |
| 1778010962 | 10.56° C | 84% | 1009.5 hPa | 0 mm | 2.68 m/s, 324° | 0 W/m² | - |
| 1778010662 | 10.56° C | 84% | 1009.5 hPa | 0 mm | 3.58 m/s, 6° | 0 W/m² | - |
| 1778010363 | 10.56° C | 84% | 1009.4 hPa | 0 mm | 4.47 m/s, 351° | 0 W/m² | - |
| 1778010064 | 10.56° C | 84% | 1009.6 hPa | 0 mm | 3.13 m/s, 349° | 0 W/m² | - |
| 1778009763 | 10.56° C | 84% | 1009.5 hPa | 0 mm | 2.24 m/s, 349° | 0 W/m² | - |
* Rain latest hour (hover to see other rain measurements)
** Current wind speed in m/s (hover to see current wind gust speed)